[[{"header":{"parameterUnit":"m.s-1","parameterCategory":1,"la1":30.2991,"la2":30.254,"lo1":-89.0895,"lo2":-89.0444,"dy":0.0017,"dx":0.0017,"nx":28,"ny":28,"refTime":"2025-03-21T03:00:00:Z","depth":0,"parameterNumber":2,"parameterNumberName":"U-component_of_WINDS"},"data":[0,0,0,0,0,0,0,0,0,0,0,0,0,0,0,0,0,0,0,0,0,0,0,0,0,0,0,0,0,0,0,0,0,0,0,0,0,0,0,0,0,0,0,0,0,0,0,0,0,0,0,0,0,0,0,0,0,0,-1.7412,-1.7412,0,-1.7439,-1.744,-1.744,-1.7328,-1.7325,-1.7321,-1.7318,-1.735,-1.7354,-1.7358,0,0,0,0,0,0,0,0,0,0,0,0,0,-1.7265,-1.7268,-1.7412,-1.7412,-1.7413,-1.7439,-1.744,-1.744,-1.7328,-1.7324,-1.732,-1.7317,-1.7349,-1.7354,-1.7358,0,0,0,0,0,0,0,0,0,0,0,0,0,-1.7315,-1.7269,-1.7412,-1.736,-1.7356,-1.7439,-1.744,-1.744,-1.7329,-1.7324,-1.7319,-1.7315,-1.7347,-1.7353,-1.7359,-1.7495,0,0,-1.7377,-1.738,0,0,0,0,0,0,0,0,-1.7312,-1.732,-1.7367,-1.7364,-1.7359,-1.7375,-1.7399,-1.7459,-1.7331,-1.734,-1.7318,-1.7312,-1.7363,-1.7367,-1.7383,-1.7496,-1.7498,-1.7378,-1.7381,-1.7384,-1.7385,0,0,0,0,0,0,0,-1.7309,-1.7318,-1.7423,-1.7368,-1.7363,-1.7336,-1.7338,-1.741,-1.7379,-1.7338,-1.733,-1.7335,-1.736,-1.7378,-1.7383,-1.7498,-1.7377,-1.7383,-1.7386,-1.7389,-1.7721,-1.7726,0,0,0,0,0,0,-1.7312,-1.7316,-1.7422,-1.7424,-1.7323,-1.7343,-1.7344,-1.7375,-1.7378,-1.7373,-1.7339,-1.7329,-1.737,-1.7376,-1.7384,-1.7541,-1.7384,-1.7389,-1.7393,-1.7716,-1.7722,-1.7728,0,0,0,0,0,0,-1.7309,-1.7322,-1.7421,-1.7368,-1.7378,-1.7351,-1.7386,-1.7378,-1.7396,-1.7378,-1.7372,-1.7363,-1.7367,-1.7376,-1.7467,-1.7541,-1.7392,-1.7397,-1.771,-1.7718,-1.7725,-1.7859,0,0,0,0,0,0,-1.7305,-1.7322,-1.7373,-1.737,-1.7381,-1.7504,-1.739,-1.7382,-1.7406,-1.7394,-1.7399,-1.7396,-1.7363,-1.7459,-1.7473,-1.7546,-1.7402,-1.7703,-1.7713,-1.7723,-1.7848,-1.787,-1.789,0,0,0,0,0,-1.73,-1.7411,-1.7376,-1.739,-1.7445,-1.7508,-1.7515,-1.7475,-1.7413,-1.7464,-1.7452,-1.7395,-1.7531,-1.7469,-1.7484,-1.7561,-1.7698,-1.771,-1.7722,-1.7838,-1.7866,-1.7889,0,0,0,0,0,0,-1.7426,-1.741,-1.7371,-1.7484,-1.7498,-1.7489,-1.7553,-1.7506,-1.7539,-1.7526,-1.7475,-1.7478,-1.7578,-1.7578,-1.751,-1.7691,-1.7604,-1.7619,-1.7687,-1.7713,-1.7734,-1.7732,-1.7407,0,0,0,0,0,-1.7467,-1.7519,-1.7502,-1.7603,-1.7612,-1.7581,-1.7608,-1.7575,-1.7588,-1.7594,-1.7589,-1.7605,-1.765,-1.7682,-1.7723,-1.7847,-1.7846,-1.7906,-1.7927,-1.7945,-1.7959,-1.8022,-1.8049,-1.7767,-1.7767,-1.7767,0,0,-1.7552,-1.7549,-1.7586,-1.7628,-1.7635,-1.769,-1.7587,-1.7651,-1.7691,-1.7604,-1.7689,-1.7686,-1.77,-1.7808,-1.7855,-1.7811,-1.8036,-1.796,-1.7974,-1.7979,-1.8037,-1.8064,-1.8088,-1.7775,-1.7774,-1.7773,0,0,-1.7735,-1.7738,-1.7822,-1.783,-1.7841,-1.7819,-1.784,-1.7837,-1.7831,-1.7915,-1.785,-1.7898,-1.7978,-1.799,-1.8007,-1.8191,-1.814,-1.8206,-1.8316,-1.8379,-1.8401,-1.842,-1.8485,-1.8509,-1.822,-1.8221,-1.8221,0,-1.7839,-1.7919,-1.7871,-1.7938,-1.7958,-1.7879,-1.7963,-1.7974,-1.7999,-1.8015,-1.7965,-1.8062,-1.8066,-1.8175,-1.8219,-1.8236,-1.8257,-1.8206,-1.8401,-1.842,-1.8438,-1.8499,-1.8523,-1.8229,-1.8228,-1.8227,-1.8226,0,-1.8046,-1.8103,-1.8169,-1.8192,-1.822,-1.8295,-1.8259,-1.8293,-1.8257,-1.824,-1.8326,-1.8328,-1.8367,-1.839,-1.8357,-1.8494,-1.8466,-1.841,-1.8321,-1.8473,-1.8529,-1.8553,-1.824,-1.8237,-1.8235,-1.8233,0,0,-1.8312,-1.8305,-1.833,-1.8338,-1.8343,-1.8386,-1.8457,-1.8493,-1.8523,-1.8542,-1.86,-1.8669,-1.8615,-1.8634,-1.8601,-1.8657,-1.88,-1.8593,-1.8592,-1.863,-1.8949,-1.8991,-1.9019,-1.8766,-1.877,-1.8774,-1.8947,0,-1.849,-1.861,-1.8567,-1.869,-1.874,-1.8664,-1.8726,-1.8736,-1.8722,-1.8763,-1.8748,-1.8797,-1.8724,-1.8734,-1.8785,-1.8772,-1.8863,-1.8759,-1.882,-1.8822,-1.8818,-1.9048,-1.9094,-1.9258,-1.8969,-1.8973,-1.8976,0,-1.8715,-1.874,-1.8867,-1.886,-1.888,-1.8936,-1.8964,-1.9005,-1.9014,-1.9,-1.902,-1.8974,-1.9043,-1.8954,-1.9048,-1.8978,-1.9,-1.8997,-1.9003,-1.9007,-1.8908,-1.9058,-1.9309,-1.9334,-1.901,-1.9007,-1.9005,0,-1.8894,-1.896,-1.9043,-1.9053,-1.9048,-1.9089,-1.9089,-1.9093,-1.9117,-1.9142,-1.9157,-1.9191,-1.9209,-1.9236,-1.9201,-1.914,-1.93,-1.9208,-1.929,-1.9291,-1.9327,-1.9325,-1.9585,-1.9343,-1.9342,-1.9342,-1.9341,0,-1.9097,-1.9178,-1.9123,-1.9175,-1.9262,-1.9213,-1.9301,-1.9292,-1.9296,-1.9345,-1.9282,-1.9329,-1.928,-1.9322,-1.9295,-1.9376,-1.9386,-1.9376,-1.9368,-1.9381,-1.9383,-1.9395,-1.9383,-1.9348,-1.9347,-1.9346,-1.9345,0,-1.9312,-1.9279,-1.9365,-1.9352,-1.9351,-1.9416,-1.9405,-1.9452,-1.9432,-1.9495,-1.9506,-1.9477,-1.9523,-1.949,-1.9537,-1.9519,-1.9625,-1.9601,-1.9622,-1.9615,-1.9697,-1.969,-1.9974,-2.0008,-1.9745,-1.9748,-1.975,0,-1.9444,-1.9504,-1.9496,-1.9523,-1.9526,-1.9571,-1.9594,-1.9547,-1.9573,-1.9586,-1.9632,-1.9673,-1.9703,-1.9781,-1.9763,-1.9799,-1.9775,-1.9872,-1.978,-1.9791,-1.9775,-1.9771,-1.9776,-1.989,-1.9894,-1.9896,-1.9898,0,-1.9681,-1.9661,-1.9695,-1.9724,-1.9752,-1.9773,-1.9788,-1.9814,-1.9766,-1.9799,-1.9844,-1.9868,-1.9914,-1.9955,-1.9983,-1.9983,-1.9933,-1.9927,-1.9947,-1.9962,-1.997,-1.9965,-1.9671,-1.9921,-1.9919,-1.9917,-1.9916,-1.9915,-1.9858,-1.9906,-1.9907,-1.9947,-1.9953,-1.9969,-2.0011,-1.9996,-2.0032,-2.0065,-2.0035,-2.009,-2.0095,-2.0127,-2.0134,-2.0176,-2.0136,-2.0166,-2.0174,-2.0182,-2.0192,-1.9964,-2.0181,-2.018,-2.018,-2.0179,-2.0179,0,-2.009,-2.0086,-2.0123,-2.0146,-2.0177,-2.0124,-2.0138,-2.0168,-2.0216,-2.0225,-2.0254,-2.0306,-2.0344,-2.0329,-2.0363,-2.0399,-2.0377,-2.041,-2.0407,-2.0407,-2.0227,-2.0205,-2.0427,-2.0427,-2.0427,-2.0427,-2.0427,-2.0427,-2.0215,-2.0293,-2.0273,-2.0353,-2.0349,-2.04,-2.0412,-2.0426,-2.0432,-2.0491,-2.0522,-2.0511,-2.051,-2.0543,-2.0576,-2.057,-2.0585,-2.0626,-2.0613,-2.0445,-2.042,-2.0397,-2.0376,-2.063,-2.063,-2.0789,-2.079,-2.0791]},{"header":{"parameterUnit":"m.s-1","parameterCategory":1,"la1":30.2991,"la2":30.254,"lo1":-89.0895,"lo2":-89.0444,"dy":0.0017,"dx":0.0017,"nx":28,"ny":28,"refTime":"2025-03-21T03:00:00:Z","depth":0,"parameterNumber":3,"parameterNumberName":"V-component_of_WINDS"},"data":[0,0,0,0,0,0,0,0,0,0,0,0,0,0,0,0,0,0,0,0,0,0,0,0,0,0,0,0,0,0,0,0,0,0,0,0,0,0,0,0,0,0,0,0,0,0,0,0,0,0,0,0,0,0,0,0,0,0,-3.348,-3.3481,0,-3.3558,-3.3559,-3.356,-3.3506,-3.3504,-3.3502,-3.3499,-3.3576,-3.358,-3.3585,0,0,0,0,0,0,0,0,0,0,0,0,0,-3.3281,-3.3285,-3.348,-3.3481,-3.3482,-3.3558,-3.3559,-3.356,-3.3507,-3.3504,-3.3501,-3.3498,-3.3575,-3.358,-3.3585,0,0,0,0,0,0,0,0,0,0,0,0,0,-3.3364,-3.3287,-3.348,-3.3465,-3.3464,-3.3558,-3.3559,-3.3561,-3.3508,-3.3504,-3.35,-3.3497,-3.3573,-3.3579,-3.3586,-3.3698,0,0,-3.3605,-3.3608,0,0,0,0,0,0,0,0,-3.336,-3.3372,-3.3466,-3.3466,-3.3466,-3.3519,-3.3517,-3.3606,-3.3508,-3.3491,-3.3499,-3.3495,-3.356,-3.3567,-3.359,-3.3701,-3.3705,-3.3606,-3.361,-3.3613,-3.3615,0,0,0,0,0,0,0,-3.3354,-3.3368,-3.3511,-3.3467,-3.3467,-3.3453,-3.3461,-3.3534,-3.3545,-3.3492,-3.3489,-3.3499,-3.3559,-3.3584,-3.3591,-3.3706,-3.3606,-3.3612,-3.3616,-3.3618,-3.3912,-3.3915,0,0,0,0,0,0,-3.335,-3.3364,-3.3508,-3.3513,-3.3403,-3.3459,-3.3468,-3.3505,-3.3544,-3.3546,-3.3502,-3.3496,-3.3574,-3.3584,-3.3594,-3.3726,-3.3613,-3.3619,-3.3622,-3.3908,-3.3913,-3.3917,0,0,0,0,0,0,-3.3346,-3.3364,-3.3505,-3.3438,-3.3455,-3.3467,-3.3509,-3.3509,-3.3533,-3.3551,-3.3552,-3.3525,-3.3572,-3.3585,-3.3672,-3.3728,-3.3622,-3.3627,-3.3903,-3.3909,-3.3915,-3.3994,0,0,0,0,0,0,-3.3341,-3.3363,-3.3406,-3.3439,-3.3458,-3.3584,-3.3513,-3.3513,-3.3545,-3.3538,-3.3573,-3.3576,-3.357,-3.3663,-3.3679,-3.3735,-3.3632,-3.3898,-3.3906,-3.3913,-3.3986,-3.4001,-3.4015,0,0,0,0,0,-3.3334,-3.3425,-3.3409,-3.3427,-3.3514,-3.3588,-3.3598,-3.3591,-3.355,-3.3593,-3.3604,-3.3574,-3.372,-3.3672,-3.369,-3.3749,-3.3895,-3.3904,-3.3912,-3.3979,-3.3998,-3.4014,0,0,0,0,0,0,-3.3398,-3.3429,-3.3411,-3.3516,-3.355,-3.3578,-3.3633,-3.3612,-3.3657,-3.3648,-3.3636,-3.3645,-3.3736,-3.3751,-3.3698,-3.3859,-3.38,-3.3813,-3.3846,-3.3864,-3.3878,-3.3872,-3.3638,0,0,0,0,0,-3.3424,-3.3483,-3.3507,-3.3597,-3.3614,-3.3621,-3.3653,-3.3644,-3.3678,-3.3692,-3.3709,-3.3742,-3.3795,-3.383,-3.388,-3.3988,-3.3994,-3.4037,-3.4051,-3.4063,-3.4074,-3.4131,-3.415,-3.3946,-3.3946,-3.3946,0,0,-3.3479,-3.3504,-3.3541,-3.361,-3.3635,-3.3695,-3.3633,-3.3699,-3.3743,-3.3701,-3.3785,-3.3799,-3.3835,-3.3933,-3.3977,-3.3948,-3.4132,-3.4074,-3.4083,-3.4088,-3.4142,-3.4161,-3.4178,-3.3952,-3.3951,-3.395,0,0,-3.361,-3.3635,-3.3712,-3.3738,-3.3777,-3.3781,-3.3799,-3.3831,-3.3839,-3.3923,-3.3893,-3.3944,-3.4036,-3.4062,-3.4088,-3.4227,-3.4201,-3.4244,-3.4318,-3.4374,-3.439,-3.4404,-3.4453,-3.4471,-3.4254,-3.4255,-3.4255,0,-3.3673,-3.3763,-3.3754,-3.3823,-3.3853,-3.3819,-3.3896,-3.3922,-3.3974,-3.3996,-3.3963,-3.4077,-3.4098,-3.4201,-3.4235,-3.4258,-3.4277,-3.4239,-3.4388,-3.4403,-3.4416,-3.4462,-3.448,-3.426,-3.4259,-3.4259,-3.4258,0,-3.3839,-3.3901,-3.3959,-3.4011,-3.4048,-3.4121,-3.4121,-3.416,-3.4147,-3.4154,-3.4239,-3.4264,-3.4318,-3.4341,-3.433,-3.4443,-3.4424,-3.439,-3.4331,-3.444,-3.4483,-3.4501,-3.4267,-3.4265,-3.4263,-3.4262,0,0,-3.4012,-3.4058,-3.408,-3.4102,-3.4142,-3.419,-3.426,-3.4313,-3.4345,-3.4382,-3.444,-3.4518,-3.4487,-3.4516,-3.4507,-3.4556,-3.4663,-3.4516,-3.4516,-3.4542,-3.4787,-3.4812,-3.4833,-3.4646,-3.465,-3.4652,-3.4784,0,-3.4145,-3.4268,-3.4262,-3.4377,-3.4434,-3.4401,-3.4462,-3.4492,-3.45,-3.4548,-3.4556,-3.4611,-3.4567,-3.4584,-3.4631,-3.464,-3.4712,-3.4631,-3.4698,-3.4701,-3.469,-3.4856,-3.4882,-3.5006,-3.4801,-3.4804,-3.4806,0,-3.4316,-3.4359,-3.448,-3.451,-3.4534,-3.4589,-3.4636,-3.4684,-3.4716,-3.4718,-3.475,-3.4733,-3.4802,-3.4742,-3.4836,-3.4781,-3.4808,-3.4817,-3.4822,-3.4827,-3.476,-3.4865,-3.5045,-3.5063,-3.4833,-3.4831,-3.4829,0,-3.4429,-3.4518,-3.4602,-3.4622,-3.466,-3.4699,-3.4716,-3.4745,-3.4777,-3.4818,-3.4839,-3.4887,-3.4914,-3.4951,-3.4946,-3.4903,-3.5042,-3.4982,-3.5044,-3.5045,-3.5075,-3.5073,-3.5261,-3.5094,-3.5093,-3.5093,-3.5093,0,-3.4578,-3.4653,-3.4653,-3.4705,-3.4787,-3.4778,-3.486,-3.4872,-3.4899,-3.4951,-3.4926,-3.4975,-3.4966,-3.5015,-3.5012,-3.509,-3.5102,-3.5105,-3.5103,-3.5107,-3.5107,-3.5124,-3.5116,-3.5098,-3.5097,-3.5096,-3.5095,0,-3.4719,-3.4722,-3.4811,-3.4839,-3.4848,-3.4907,-3.493,-3.4978,-3.4984,-3.505,-3.5065,-3.5073,-3.5129,-3.5128,-3.5192,-3.519,-3.5285,-3.5274,-3.5275,-3.5272,-3.5335,-3.5329,-3.554,-3.5567,-3.5383,-3.5385,-3.5386,0,-3.4813,-3.487,-3.4904,-3.4938,-3.4957,-3.5012,-3.5044,-3.5037,-3.5072,-3.5113,-3.5155,-3.5209,-3.5252,-3.5343,-3.5353,-3.5402,-3.5391,-3.5462,-3.5398,-3.54,-3.5391,-3.5388,-3.5393,-3.5474,-3.5476,-3.5478,-3.5479,0,-3.4979,-3.4978,-3.5026,-3.5076,-3.5115,-3.5153,-3.5188,-3.5216,-3.5213,-3.5253,-3.531,-3.5343,-3.5408,-3.5462,-3.5508,-3.5524,-3.5501,-3.5499,-3.5516,-3.5521,-3.5518,-3.552,-3.5308,-3.5494,-3.5493,-3.5492,-3.5491,-3.549,-3.51,-3.5148,-3.518,-3.5234,-3.5259,-3.5292,-3.5339,-3.535,-3.5398,-3.5451,-3.5443,-3.5507,-3.5536,-3.5596,-3.5617,-3.5665,-3.564,-3.5665,-3.5671,-3.5678,-3.5684,-3.5511,-3.5674,-3.5673,-3.5673,-3.5673,-3.5672,0,-3.5264,-3.5283,-3.5333,-3.5382,-3.5425,-3.54,-3.5437,-3.5474,-3.553,-3.5561,-3.5603,-3.5668,-3.572,-3.5734,-3.5783,-3.5819,-3.581,-3.5833,-3.583,-3.5833,-3.5704,-3.5684,-3.5839,-3.5839,-3.5839,-3.5839,-3.5839,-3.5839,-3.5355,-3.5436,-3.5438,-3.553,-3.5548,-3.5611,-3.5634,-3.5664,-3.5688,-3.5762,-3.5805,-3.5814,-3.5837,-3.5888,-3.5933,-3.5936,-3.5955,-3.5982,-3.598,-3.5859,-3.5843,-3.5827,-3.5808,-3.5986,-3.5986,-3.6105,-3.6106,-3.6107]}]]